{"data":{"norad_id":67872,"intl_designator":"2026-034Y","name":"STARLINK-36786","alt_names":[],"object_type":"PAYLOAD","status":"ACTIVE","operator":null,"country":"US","launch_date":"2026-02-20","launch_site_code":"AFETR","launch_vehicle":null,"mission":null,"orbit_class":"UNKNOWN","rcs_meters":null,"size_class":null,"mass_kg":null,"dimensions":null,"purposes":["comms"],"wikipedia_slug":null,"has_3d_model":false,"image_url":null,"decayed_at":null,"tle_current":{"epoch":"2026-05-25T04:57:01.310688Z","epoch_age_seconds":47464,"freshness":"FRESH","line1":"1 67872U 26034Y   26145.20626517  .00018352  00000+0  63019-3 0  9992","line2":"2 67872  53.1574 208.6176 0000942  92.6910 267.4199 15.30200546 15751","mean_motion":15.30200546,"eccentricity":9.42e-5,"inclination_deg":53.1574,"raan_deg":208.6176,"arg_perigee_deg":92.691,"mean_anomaly_deg":267.4199,"bstar":0.00063019,"rev_number":1575,"period_min":94.105312128153,"perigee_km":474.56785355086,"apogee_km":475.8590247736,"semimajor_km":6853.3504391622,"source":"CELESTRAK","updated_at":"2026-05-25T13:38:21.729567Z"}}}